Regional Weather Roundup
Issued by NWS Portland, ME

Home | Current Version | Previous Version | Text Only | Print | Product List | Glossary On
Versions: 1 2 3 4 5 6 7 8 9 10 11 12 13 14 15 16 17 18 19 20 21 22 23 24 25 26 27 28 29 30 31 32 33 34 35 36 37 38 39 40 41 42 43 44 45 46 47 48 49 50
000
ASUS41 KGYX 202210
RWRGYX
WEATHER ROUNDUP FOR MAINE AND NEW HAMPSHIRE
NATIONAL WEATHER SERVICE GRAY ME
600 PM EDT SUN APR 20 2014

MEZ002-005-006-010-012-015-018-020-021-024-026-027-029-202300-
MAINE

CITY           SKY/WX    TMP DP  RH WIND       PRES   REMARKS
PORTLAND       MOSUNNY   44  24  45 S16       30.41F
SANFORD        SUNNY     48  -4  11 S9        30.40F
BAR HARBOR     MOSUNNY   43  28  56 S16       30.40F
WISCASSET      SUNNY     45  27  49 SW10      30.42F
ROCKLAND       MOSUNNY   43  28  56 S10       30.42F
FRYEBURG       SUNNY     58   8  13 VRB7      30.33F
LEWISTONAUBURN PTSUNNY   46  25  42 S15       30.38F
AUGUSTA        MOSUNNY   45  24  43 S13G23    30.38F
WATERVILLE     MOSUNNY   50  23  34 S8G16     30.32S
BANGOR         MOSUNNY   47  27  45 S15       30.37S
GREENVILLE       N/A     51   7  16 S7        30.28F
MILLINOCKET    SUNNY     54  13  19 S7        30.33F
HOULTON        MOSUNNY   51  12  21 SW7       30.31F
PRESQUE ISLE   SUNNY     48  14  25 E5        30.32F
FRENCHVILLE    MOSUNNY   44   9  23 S3        30.29F
CARIBOU        MOSUNNY   47  14  26 E6        30.30F
$$

NHZ002-005-008-009-011-012-014-202300-
NEW HAMPSHIRE

CITY           SKY/WX    TMP DP  RH WIND       PRES   REMARKS
PORTSMOUTH     PTSUNNY   46  26  44 S14       30.41F
ROCHESTER      SUNNY     49  16  26 SE10      30.39F
NASHUA         SUNNY     55  22  28 SE10G20   30.39F
MANCHESTER     MOSUNNY   57  21  24 SE13      30.36F
CONCORD        SUNNY     56  15  20 S9        30.36F
LACONIA        SUNNY     57  14  18 S8        30.35F
PLYMOUTH         N/A     60  11  15 S6        30.32S
BERLIN         MOSUNNY   60  10  14 W6        30.29F
WHITEFIELD     MOSUNNY   59  14  17 W9        30.30F
JAFFREY        SUNNY     57  14  18 S6        30.35F
LEBANON        SUNNY     61  12  14 S12       30.31F
MT WASHINGTON  MOSUNNY   32  16  51 W22         N/A  WCI  19
$$

VTZ005-007-008-202300-
VERMONT

CITY           SKY/WX    TMP DP  RH WIND       PRES   REMARKS
ST JOHNSBURY     N/A     59   9  13 MISG      30.28F
MONTPELIER     SUNNY     59  16  18 S9        30.33F
BURLINGTON     PTSUNNY   60  17  18 S9        30.28F
$$

MAZ007-012-024-CTZ003-RIZ002-NYZ038-NYZ072-202300-
SOUTHERN NEW ENGLAND AND NY

CITY           SKY/WX    TMP DP  RH WIND       PRES   REMARKS
BOSTON         PTSUNNY   44  31  60 E12       30.44F
WORCESTER      SUNNY     54  14  20 SE12      30.37F
NANTUCKET      SUNNY     45  32  60 NE9       30.44F
PROVIDENCE     MOSUNNY   50  29  44 S14       30.43F
HARTFORD       PTSUNNY   61  14  16 S8        30.36F
ALBANY         MOSUNNY   63  17  17 S9        30.32F
NEW YORK CITY  MOSUNNY   52  24  33 SE10      30.42F
$$

ANZ081-ANZ082-ANZ150-NHZ014-MEZ023>029-202300-
COASTAL MARINE OBSERVATIONS

STATION/POSITION TIME  TEMP    WIND        PRES    WAVE
                       AIR SEA DIR/SP/G            HT/PER
                 (UTC) (F)     (DEG/KT/KT) (MB)    (FT/S)
MOUNT DESERT ROC 2200   41                 1029.8F
MATINICUS ROCK   2100   40     210/ 14/ 16 1031.0F
PORTLAND WX BUOY 2200   42 42  190/ 14/ 16 1029.9F   2/ 3
WELLS            2200   42 41  190/ 13/ 15 1029.7S
ISLE OF SHOALS   2100   41     160/ 13/ 14 1030.5F
JEFFREYS LEDGE   2200      41                N/A     2/ 6
CASHES LEDGE BUO 2200   42 42  210/  8/  8 1030.9F   2/ 8
$$

.............KEY..............
   WCI - WIND CHILL
   TC  - TEMPERATURE IN CELSIUS
   VSB - VISIBILITY IN MILES
   HX  - HEAT INDEX
   FAIR- INDICATES FEW OR NO CLOUDS BELOW 12,000 FT, WITH NO
         SIGNIFICANT WEATHER AND/OR OBSTRUCTIONS TO VISIBILITY.





USA.gov is the U.S. government's official web portal to all federal, state and local government web resources and services.